Miscellaneous Local Product
Issued by NWS North Platte, NE

Home | Current Version | Previous Version | Graphics & Text | Print | Product List | Glossary On
Versions: 1 2 3 4 5 6 7 8 9 10 11 12 13 14 15 16 17 18 19 20 21 22 23 24 25 26 27 28 29 30 31 32 33 34 35 36 37 38 39 40 41 42 43 44 45 46 47 48 49 50
000
AXUS43 KLBF 050610
MISLBF


WESTERN AND NORTH CENTRAL NEBRASKA HOURLY WEATHER ROUNDUP
NATIONAL WEATHER SERVICE NORTH PLATTE NE
100 AM CDT WED AUG 05 2015

***STATIONS NOT REPORTING VARIABLES SUCH AS SKY/WEATHER OR
PRESSURE ARE PROVIDED BY THE NEBRASKA DEPARTMENT OF
ROADS...RAWS...AND APRS NETWORKS...AND ARE NOT UNDER
NATIONAL WEATHER SERVICE QUALITY CONTROL***

...OBSERVATIONS IN AND NEAR THE EASTERN PANHANDLE OF NEBRASKA...

CITY           SKY/WX    TMP DP  RH WIND       PRES   REMARKS
PINE RIDGE     MOCLDY    66  59  78 CALM      30.04R
CHADRON        CLOUDY    66  60  81 SW3       30.03S
ALLIANCE       MOCLDY    61  60  97 S5        30.07R
SIDNEY         CLEAR     58  56  93 S3        30.11R
BIG SPRINGS      N/A     63  62  95 SE3         N/A
$$

...OBSERVATIONS IN NORTH CENTRAL NEBRASKA...

CITY           SKY/WX    TMP DP  RH WIND       PRES   REMARKS
THEDFORD       PTCLDY    61  60  97 CALM      30.03F
AINSWORTH      CLOUDY    66  65  95 CALM      30.01F
O`NEILL        CLOUDY    67  65  91 E6        30.00R
ORD            CLOUDY    64  63  96 S3        29.97F
BROKEN BOW     MOCLDY    65  63  93 S7        29.99F
SPRINGVIEW       N/A     66  63  91 CALM        N/A
CHAMBERS         N/A     66  64  92 E6          N/A
EWING            N/A     66  64  93 E3          N/A
$$

...OBSERVATIONS IN SOUTHWEST NEBRASKA AND FAR NORTHEAST COLORADO...

CITY           SKY/WX    TMP DP  RH WIND       PRES   REMARKS
WRAY           FAIR      61  60  98 CALM      30.08R
HOLYOKE        FAIR      61  59  94 E3        30.08S
IMPERIAL       CLEAR     60  59  96 N6        30.05S
OGALLALA       CLEAR     61  60  98 CALM      30.05F
NORTH PLATTE   CLOUDY    61  59  93 NW5       30.02S
MCCOOK         PTCLDY    62  61  96 CALM      30.02S
LEXINGTON      PTCLDY    64  63  97 SE5       30.01R
PAXTON           N/A     62  60  93 CALM        N/A
BRADY            N/A     63  62  95 CALM        N/A
CALLAWAY         N/A     66  65  98 E3          N/A
$$

...NORTH PLATTE AREA...

CITY           SKY/WX    TMP DP  RH WIND       PRES   REMARKS
AIRPORT        CLOUDY    61  59  93 NW5       30.02S
DOWNTOWN         N/A     64  63  97 CALM        N/A
SANDRIDGE        N/A     64  62  95 CALM        N/A
HILLCREST        N/A     64  64 100 CALM        N/A
$$

...SOME WEATHER OBSERVATIONS FROM AROUND THE REGION...

CITY           SKY/WX    TMP DP  RH WIND       PRES   REMARKS
DENVER         CLEAR     65  53  65 SE13      30.15F
LARAMIE        CLEAR     53  40  61 S5        30.27S
CHEYENNE       CLEAR     57  53  86 SW6       30.21S
SCOTTSBLUFF    MOCLDY    63  62  97 CALM      30.08R FOG
RAPID CITY     CLOUDY    68  60  75 CALM      30.01R
PIERRE         MOCLDY    69  62  78 SE10      29.97F
WINNER         FAIR      68  64  87 SE6       30.00S
SIOUX FALLS    MOCLDY    66  59  78 E7        30.03R
OMAHA          MOCLDY    69  66  90 E6        29.98R
GRAND ISLAND   CLOUDY    66  65  96 S5        30.00F
KANSAS CITY    PTCLDY    70  68  93 SE9       29.99S
WICHITA        MOCLDY    74  70  87 E8        29.95S
HAYS           CLOUDY    72  61  68 SE5       29.95S
LIBERAL        CLEAR     75  66  73 SE7         N/A
GOODLAND       CLEAR     62  60  93 W7        30.05R
$$



USA.gov is the U.S. government's official web portal to all federal, state and local government web resources and services.